Cordova, AK

6:49 AM AKDT on March 27, 2017 (GMT -0800)
Cordova-Smith

Weather History for PACV - October, 2012

Change the Weather History Date:

Monday, October 22, 2012

  Actual Average Record
Temperature  
Mean Temperature 22 °F -  
Max Temperature 34 °F 45 °F 59 °F (1957)
Min Temperature 12 °F 30 °F 9 °F (1966)
Degree Days  
Heating Degree Days 42    
Moisture  
Dew Point 14 °F    
Average Humidity 78    
Maximum Humidity 96    
Minimum Humidity 48    
Precipitation  
Precipitation 0.00 in - - ()
Snow  
Snow 0.00 in - - ()
Snow Depth 4.00 in    
Sea Level Pressure  
Sea Level Pressure 30.19 in    
Wind  
Wind Speed 0 mph (South)    
Max Wind Speed 4 mph    
Max Gust Speed -    
Visibility 10 miles    
Events      
Averages and records for this station are not official NWS values.
T = Trace of Precipitation, MM = Missing Value Source: NWS Daily Summary

Daily Weather History Graph

Daily Weather History Graph

Search for Another Location

Airport or City:

Trip Planner

Search our weather history database for the weather conditions in past years. The results will help you decide how hot, cold, wet, or windy it might be!

Date:

Astronomy

Oct. 22, 2012 Rise Set
Actual Time 8:42 AM AKDT 6:09 PM AKDT
Civil Twilight 7:58 AM AKDT 6:53 PM AKDT
Nautical Twilight 7:08 AM AKDT 7:42 PM AKDT
Astronomical Twilight 6:19 AM AKDT 8:31 PM AKDT
Moon 3:57 PM AKDT (10/22) No Moon Set
Length of Visible Light 10h 55m
Length of Day
9h 27m
First Quarter, 58% of the Moon is Illuminated
Oct 22
First Quarter
Oct 29
Full
Nov 6
Last Quarter
Nov 13
New
Nov 20
First Quarter

Hourly Weather History & Observations

Time (AKDT) Temp. Windchill Dew Point Humidity Pressure Visibility Wind Dir Wind Speed Gust Speed Precip Events Conditions
12:53 AM 15.1 °F - 12.9 °F 91% 30.26 in 10.0 mi Calm Calm - N/A   Clear
1:53 AM 15.1 °F - 12.0 °F 88% 30.26 in 10.0 mi Calm Calm - N/A   Clear
2:53 AM 16.0 °F - 12.0 °F 84% 30.25 in 10.0 mi Calm Calm - N/A   Clear
3:53 AM 14.0 °F - 10.0 °F 84% 30.24 in 10.0 mi Calm Calm - N/A   Clear
4:53 AM 14.0 °F - 10.9 °F 88% 30.24 in 10.0 mi Calm Calm - N/A   Clear
5:53 AM 14.0 °F - 10.0 °F 84% 30.23 in 10.0 mi Calm Calm - N/A   Clear
6:53 AM 12.0 °F - 8.1 °F 84% 30.23 in 10.0 mi Calm Calm - N/A   Clear
7:53 AM 12.0 °F - 9.0 °F 88% 30.22 in 9.0 mi Calm Calm - N/A   Clear
8:53 AM 12.9 °F - 9.0 °F 84% 30.22 in 10.0 mi Calm Calm - N/A   Partly Cloudy
9:53 AM 15.1 °F - 12.0 °F 88% 30.21 in 10.0 mi Calm Calm - N/A   Clear
10:53 AM 21.0 °F - 19.9 °F 96% 30.21 in 10.0 mi Calm Calm - N/A   Clear
11:53 AM 27.0 °F - 21.0 °F 78% 30.20 in 10.0 mi Calm Calm - N/A   Clear
12:53 PM 30.9 °F - 17.1 °F 57% 30.19 in 10.0 mi Calm Calm - N/A   Clear
1:53 PM 33.1 °F - 16.0 °F 50% 30.19 in 10.0 mi Calm Calm - N/A   Clear
2:53 PM 33.1 °F 30.0 °F 15.1 °F 48% 30.18 in 10.0 mi South 3.5 mph - N/A   Clear
3:53 PM 33.1 °F - 17.1 °F 52% 30.17 in 10.0 mi Calm Calm - N/A   Clear
4:53 PM 33.1 °F - 17.1 °F 52% 30.16 in 10.0 mi Calm Calm - N/A   Clear
5:53 PM 28.9 °F - 18.0 °F 64% 30.15 in 10.0 mi Calm Calm - N/A   Clear
6:53 PM 23.0 °F - 19.0 °F 85% 30.15 in 10.0 mi Calm Calm - N/A   Clear
8:53 PM 19.9 °F - 17.1 °F 89% 30.13 in 10.0 mi Calm Calm - N/A   Clear
9:53 PM 18.0 °F - 15.1 °F 88% 30.13 in 10.0 mi Calm Calm - N/A   Clear
10:53 PM 17.1 °F - 14.0 °F 88% 30.13 in 10.0 mi Calm Calm - N/A   Clear
11:53 PM 15.1 °F - 12.9 °F 91% 30.13 in 10.0 mi Calm Calm - N/A   Clear